Weather Roundup
Issued by NWS Springfield, MO

Home | Current Version | Previous Version | Text Only | Print | Product List | Glossary On
Versions: 1 2 3 4 5 6 7 8 9 10 11 12 13 14 15 16 17 18 19 20 21 22 23 24 25 26 27 28 29 30 31 32 33 34 35 36 37 38 39 40 41 42 43 44 45 46 47 48 49 50
000
NZUS99 KSGF 231857
HRRSGF

HOURLY WEATHER
NATIONAL WEATHER SERVICE SPRINGFIELD MO
200 PM CDT SAT JUL 23 2016

......SGF CWA......

CITY           SKY/WX    TMP DP  RH WIND       PRES   REMARKS
SPRINGFIELD    SUNNY     97  68  38 W7        29.98F HX 102
JOPLIN         SUNNY     95  71  45 SW13      29.95F HX 102
WEST PLAINS    SUNNY     94  72  48 VRB6      30.02S HX 102
ROLLA          MOSUNNY   93  75  55 SW9       29.98S HX 104
BRANSON        MOSUNNY   95  72  46 NW5       30.01F HX 103

......SURROUNDING SGF CWA......

CITY           SKY/WX    TMP DP  RH WIND       PRES   REMARKS
CHANUTE        MOSUNNY   95  72  47 SW16      29.93F HX 103
PARSONS        SUNNY     96  70  42 S13G20    29.94F HX 102
COFFEYVILLE    SUNNY     98  70  40 S16       29.92F HX 105
EMPORIA        MOSUNNY   96  70  42 S15       29.90F HX 102
HARRISON AR    MOSUNNY   95  71  45 VRB5      30.00F HX 102

......KANSAS AND MISSOURI......

CITY           SKY/WX    TMP DP  RH WIND       PRES   REMARKS
KANSAS CTY INT CLOUDY    92  76  59 S15       29.91F HX 104
SEDALIA        MOSUNNY   96  75  50 S10       29.95F HX 108
ST JOSEPH      CLOUDY    92  73  53 S16G22    29.87S HX 100
ST LOUIS       MOSUNNY   94  73  50 SE9       29.97F HX 103
WICHITA        PTSUNNY  101  63  28 S14       29.88F HX 103
TOPEKA         MOSUNNY   93  71  48 S13       29.88S HX 100
OLATHE         PTSUNNY   89  72  56 S8        29.93F HX  96

......TENNESSEE......

CITY           SKY/WX    TMP DP  RH WIND       PRES   REMARKS
MEMPHIS        NOT AVBL
NASHVILLE      PTSUNNY   89  73  59 W9        29.98F HX  97

......ARKANSAS.......

CITY           SKY/WX    TMP DP  RH WIND       PRES   REMARKS
FAYETTEVILLE   MOSUNNY   94  75  54 SW5       29.99F HX 105
FT SMITH       SUNNY     99  71  40 MISG      29.93F HX 107
LITTLE ROCK    MOSUNNY   97  74  47 SE7       29.93F HX 108

......OKLAHOMA.......

CITY           SKY/WX    TMP DP  RH WIND       PRES   REMARKS
TULSA          MOSUNNY   99  69  37 SW9G22    29.90F HX 105
PONCA CITY     SUNNY    100  65  31 S15G22    29.89F HX 103
MCALESTER      SUNNY     97  71  42 W10       29.96F HX 104
OKLAHOMA CITY  MOSUNNY   99  63  30 S13G24    29.95F HX 101

......IOWA............

CITY           SKY/WX    TMP DP  RH WIND       PRES   REMARKS
DES MOINES     NOT AVBL
QUAD CITIES    CLOUDY    89  79  72 SE12      29.93F HX 104

......ILLINOIS........

CITY           SKY/WX    TMP DP  RH WIND       PRES   REMARKS
QUINCY         NOT AVBL
CHICAGO        CLOUDY    89  73  59 VRB3      29.97F HX  97



USA.gov is the U.S. government's official web portal to all federal, state and local government web resources and services.